Погода Klodzko

Погода Klodzko : погода сейчас, прогноз погоды и архив. Всё, что Вы хотите узнать о погоде Klodzko!

Поиск расширенной информации на нашем сайте:

Другие новости

Новости СМИ2

Главная страница сайта

Новости сайта

03.07.2017

Напоминаем, что на нашем специализированном сайте Метеоцентр.Азия вы можете получить высокодетализированные автоматические прогнозы погоды по пунктам России, СНГ и мира в авиационном формате (включающие направление и скорость ветра, видимость, явления погоды, количество и форму облачности, нижнюю и верхнюю границу облачности).


Погода Klodzko - сегодня

Время (UTC), дата Ветер
(°,м/с) 
Видим.   Явления Облачность Т
(°С)
Тd
(°С)
f(%) Тe
(°С)
Pmin
(гПа)
dP
(гПа)
Po
(мм)
O2
(г/м3)
Тmin Tmax R s Состояние
почвы
15 09.09.18 270 (З) 45000 м    9/1 1500 м средняя 
[Sc diur, vesp|Ac trans]
+21.9 +7.7 40 +22  1021.4  -0.2  735  273           
18 09.09.18 тихо ()   50000 м    9/0 средняя, верхняя 
[Ac As|Ci fib]
+18.8 +9 53 +19  1022  0.2  735  276  +9.4  +22.9       
03 10.09.18 тихо ()   25000 м    1/0 верхняя 
[Ci fib]
+7.8 +6.7 93 +8  1024.4  -0.2  736  287           
06 10.09.18 170 (Ю) 50000 м    3/1 1000 м средняя, верхняя 
[Sc|Ac trans|Ci fib]
+10.2 +8.8 91 +11  1024.6  0.6  736  284  +6.9  +18.8      сухая 
09 10.09.18 нст () 50000 м    4/1 1500 м верхняя 
[Cu hum|Ci sp]
+19.3 +10.3 56 +23  1022.6  -0.6  736  275           
12 11.09.18 230 (ЮЗ) 40000 м  {ливн. осадки}  9/1 1500 м средняя, верхняя 
[Cu hum|Ac As|Cs]
+24.8 +9.5 38 +26  1020.8  -1.3  735  270      0.0     
03 12.09.18 тихо ()   30000 м    9/0 верхняя 
[Cs]
+11.4 +8.4 82 +11  1023.8  -0.5  736  283           
06 12.09.18 180 (Ю) 50000 м    5/0 верхняя 
[Cs]
+12.3 +10 86 +16  1023.8  0.1  736  282  +9.2  +19.5      сухая 
15 12.09.18 270 (З) 45000 м    1/0 верхняя 
[Ci fib]
+28.2 +6.9 26 +28  1017.4  -1.6  733  266           
21 12.09.18 240 (ЮЗ) 40000 м    ясно 
+16 +8 59 +17  1019.4  0.6  733  278           
03 13.09.18 нст () 40000 м    1/0 средняя, верхняя 
[Ac trans|Ci sp]
+11.8 +9 83 +13  1020.5  -0.3  733  282           
00 14.09.18 350 (С) 25000 м  {ливн. осадки}  9/4 660 м средняя 
[Sc|Ac As]
+15.2 +13 87 +23  1018.3  732  277      0.0     
06 14.09.18 100 (В) 4000 м  слаб. дождь{ливн. осадки}  10/6 60 м средняя 
[Frnb|As op]
+13.4 +12.9 97 +21  1019.3  0.4  733  279  +13.2  +18.5    мокрая 
12 14.09.18 070 (В) 6000 м  дымка{дождь}  10/10 150 м 
[St]
+14.3 +13.5 95 +22  1020.3  -0.1  733  278      0.9     
06 15.09.18 200 (Ю) 0300 м  туман{ливн. осадки}  ?/?  
+12.3 +12.3 100 +19  1021.6  1.3  734  281  +10.5  +13.9  0.5    мокрая 
09 15.09.18 290 (З) 15000 м  {туман}  4/4 450 м средняя 
[Cu med, cong|Ac trans]
+16.7 +14 84 +26  1021.9  735  276           
21 16.09.18 260 (З) 40000 м    9/0 верхняя 
[Cs]
+11.2 +8.8 85 +12  1024.8  0.5  736  283           
21 18.09.18 180 (Ю) 5{13}  50000 м    ясно 
+19.4 +9.8 54 +21  1018.7  1.1  733  274           
00 19.09.18 170 (Ю) 5{13}  50000 м    ясно 
+18 +9.9 59 +19  1019.2  0.3  733  275           
06 19.09.18 170 (Ю) 1{09}  50000 м    6/4 1000 м кучево-дожд., средняя, верхняя 
[Cb cap|Ac trans|Ci ing]
+17.4 +10.7 65 +22  1019.9  0.6  733  276  +15.5  +22.3      сухая 
12 19.09.18 210 (ЮЗ) 2{07}  50000 м    3/1 1500 м средняя, верхняя 
[Cu med, cong|Ac cuf|Ci sp]
+26.6 +13 43 +33  1018.4  -0.5  733  267           
21 19.09.18 190 (Ю) 20000 м    ясно 
+17 +13.9 82 +24  1021.4  0.7  734  276           
18 20.09.18 200 (Ю) 30000 м    1/0 верхняя 
[Ci fib]
+22.1 +14 60 +30  1017.9  0.2  733  270  +13.3  +28.1       
03 21.09.18 320 (СЗ) 20000 м    ясно 
+13 +12.1 94 +19  1017.3  -0.7  731  279           
00 22.09.18 300 (СЗ) 1{27}  45000 м  слаб. ливневой дождь{гроза}  10/9 700 м кучево-дожд. 
[Cb cap]
+12.2 +9.9 86 +15  1016.6  731  280         
Время (UTC), дата Ветер
(°,м/с) 
Видим.   Явления Облачность Т
(°С)
Тd
(°С)
f(%) Тe
(°С)
Pmin
(гПа)
dP
(гПа)
Po
(мм)
O2
(г/м3)
Тmin Tmax R s Состояние
почвы

Для получения пояснительной информации подведите курсор к названию столбца.

ПОГОДА Klodzko - архив

Всё, что Вы хотите узнать о погоде Klodzko - удобно и подробно!

Выберите нужную дату (начиная с 1 января 2015* года) и нажмите кнопку "Найти".
Будут отображены архивные сводки погоды по пункту Klodzko, начиная с указанной даты.


Отображать данные в формате CSV (для использования в таблицах Excel)


Внимание! Наш архив погоды предназначен исключительно для личного некоммерческого использования в познавательных целях. Если Вам необходимы официальные справки о состоянии погоды (для производственных, юридических, коммерческих и т.п. целей), обращайтесь в органы Росгидромета.

*Примечание: данная дата относится к архиву по метеостанциям СССР (Россия, СНГ, Балтия).
Архив по метеостанциям Зарубежной Европы и Азии (кроме Китая) хранится 10 дней, по другим регионам земного шара (Китай, Африка, Америка, Австралия, Океания) - 1 день.

Klodzko - район местоположения метеостанции


Название, широта, долгота, высота метеостанции:
Klodzko 50.4°ш. 16.6°д. 357 м над ур. моря [Poland]

Дополнительная информация

В oтличие oт бoльшинства пoгoдных сайтoв мы публикуем пoдрoбную метеoинфoрмацию в детальнoм прoфессиoнальнoм фoрмате.

Характеристики температуры и влажнoсти вoздуха измеряются на высoте 2 м в тени вдали oт зданий и деревьев.
Скoрoсть ветра измеряется на высoте 10 м (на урoвне рoста челoвека скoрoсть ветра ниже в 1.5-2 раза). Если метеoстанция нахoдится в гoрoде или в лесу, тo скoрoсть ветра занижена на 2-4 м/с пo сравнению с oткрытым местoм. Скoрoсть ветра над акватoриями крупных рек и oзёр, а также на вершинах хoлмoв на 2-5 м/с выше, чем в oбычных услoвиях.
Атмoсфернoе давление в разных тoчках местнoсти мoжет значительнo oтличаться oт давления на метеoстанции, в зависимoсти oт услoвий рельефа (при пoдъёме на 10 м давление пoнижается примернo на 1 мм рт.ст.).